TimeEST,TemperatureF,Dew PointF,Humidity,Sea Level PressureIn,VisibilityMPH,Wind Direction,Wind SpeedMPH,Gust SpeedMPH,PrecipitationIn,Events,Conditions,WindDirDegrees,DateUTC
12:15 AM,13.1,7.7,79,30.00,10.0,NW,3.5,-,N/A,,Overcast,310,2013-12-18 05:15:00
12:35 AM,13.1,7.9,80,29.99,10.0,Calm,Calm,-,N/A,,Overcast,0,2013-12-18 05:35:00
12:55 AM,13.1,8.2,81,29.99,10.0,Calm,Calm,-,N/A,,Overcast,0,2013-12-18 05:55:00
1:15 AM,13.1,8.2,81,29.99,10.0,NNW,3.5,-,N/A,Snow,Light Snow,330,2013-12-18 06:15:00
1:35 AM,12.2,7.3,81,29.98,10.0,North,3.5,-,N/A,,Overcast,350,2013-12-18 06:35:00
1:55 AM,13.1,8.6,82,29.97,10.0,Calm,Calm,-,N/A,,Overcast,0,2013-12-18 06:55:00
2:15 AM,12.0,7.2,81,29.99,10.0,NNW,5.8,-,N/A,,Overcast,330,2013-12-18 07:15:00
2:35 AM,11.3,6.6,81,29.98,10.0,North,3.5,-,N/A,,Overcast,350,2013-12-18 07:35:00
2:55 AM,11.8,7.3,82,29.97,10.0,Calm,Calm,-,N/A,,Overcast,0,2013-12-18 07:55:00
3:15 AM,10.9,6.1,81,29.98,10.0,NW,4.6,-,N/A,,Overcast,320,2013-12-18 08:15:00
3:35 AM,10.8,5.9,81,29.99,10.0,NNW,3.5,-,N/A,,Overcast,330,2013-12-18 08:35:00
3:55 AM,10.8,5.9,81,29.99,10.0,Calm,Calm,-,N/A,,Overcast,0,2013-12-18 08:55:00
4:15 AM,10.8,5.9,81,29.99,2.0,Calm,Calm,-,N/A,Snow,Light Snow,0,2013-12-18 09:15:00
4:35 AM,10.8,5.9,81,29.99,2.0,Calm,Calm,-,N/A,Snow,Light Snow,0,2013-12-18 09:35:00
4:55 AM,10.9,6.3,81,29.98,1.8,Calm,Calm,-,N/A,Snow,Light Snow,0,2013-12-18 09:55:00
5:15 AM,11.5,6.8,81,29.98,2.5,Calm,Calm,-,N/A,Snow,Light Snow,0,2013-12-18 10:15:00
5:35 AM,10.8,5.9,81,29.99,4.0,Calm,Calm,-,N/A,Snow,Light Snow,0,2013-12-18 10:35:00
5:55 AM,10.8,5.9,81,29.99,5.0,Calm,Calm,-,N/A,Snow,Light Snow,0,2013-12-18 10:55:00
6:15 AM,10.8,6.3,82,29.99,5.0,Calm,Calm,-,N/A,,Haze,0,2013-12-18 11:15:00
6:35 AM,10.8,5.9,81,29.99,5.0,Calm,Calm,-,N/A,Snow,Light Snow,0,2013-12-18 11:35:00
6:55 AM,10.8,5.9,81,29.99,10.0,Calm,Calm,-,N/A,,Mostly Cloudy,0,2013-12-18 11:55:00
7:15 AM,8.2,3.7,82,29.99,4.0,Calm,Calm,-,N/A,Snow,Light Snow,0,2013-12-18 12:15:00
7:35 AM,8.2,4.3,84,30.00,5.0,Calm,Calm,-,N/A,Snow,Light Snow,0,2013-12-18 12:35:00
7:55 AM,10.8,6.4,83,30.00,7.0,Calm,Calm,-,N/A,Snow,Light Snow,0,2013-12-18 12:55:00
8:15 AM,10.8,5.9,81,30.00,4.0,Calm,Calm,-,N/A,Snow,Light Snow,0,2013-12-18 13:15:00
8:35 AM,10.8,5.9,81,30.00,3.0,Calm,Calm,-,N/A,Snow,Light Snow,0,2013-12-18 13:35:00
8:55 AM,10.8,5.9,81,30.00,2.0,Calm,Calm,-,N/A,Snow,Light Snow,0,2013-12-18 13:55:00
9:15 AM,11.8,6.6,80,29.99,1.2,Calm,Calm,-,N/A,Snow,Light Snow,0,2013-12-18 14:15:00
9:35 AM,12.7,7.2,78,29.99,1.5,Calm,Calm,-,N/A,Snow,Light Snow,0,2013-12-18 14:35:00
9:55 AM,13.1,7.7,79,29.99,1.8,Calm,Calm,-,N/A,Snow,Light Snow,0,2013-12-18 14:55:00
10:15 AM,13.5,7.5,77,29.98,1.0,Calm,Calm,-,N/A,Snow,Light Snow,0,2013-12-18 15:15:00
10:35 AM,15.3,9.0,76,29.98,4.0,Calm,Calm,-,N/A,Snow,Light Snow,0,2013-12-18 15:35:00
10:55 AM,15.8,8.6,73,29.97,5.0,Calm,Calm,-,N/A,Snow,Light Snow,0,2013-12-18 15:55:00
11:15 AM,15.8,8.6,73,29.97,3.0,Calm,Calm,-,N/A,Snow,Light Snow,0,2013-12-18 16:15:00
11:35 AM,18.3,10.6,72,29.95,3.0,Calm,Calm,-,N/A,Snow,Light Snow,0,2013-12-18 16:35:00
11:55 AM,20.1,11.1,68,29.95,2.5,Calm,Calm,-,N/A,Snow,Light Snow,0,2013-12-18 16:55:00
12:15 PM,19.8,11.7,71,29.94,3.0,Calm,Calm,-,N/A,Snow,Light Snow,0,2013-12-18 17:15:00
12:35 PM,20.8,12.0,69,29.93,7.0,Calm,Calm,-,N/A,Snow,Light Snow,0,2013-12-18 17:35:00
12:55 PM,23.7,14.0,66,29.93,10.0,NW,3.5,-,N/A,,Scattered Clouds,310,2013-12-18 17:55:00
1:15 PM,20.8,11.7,68,29.93,10.0,Calm,Calm,-,N/A,,Overcast,0,2013-12-18 18:15:00
1:35 PM,18.3,10.0,70,29.94,7.0,NNW,3.5,-,N/A,,Overcast,340,2013-12-18 18:35:00
1:55 PM,18.3,10.2,71,29.93,2.0,Calm,Calm,-,N/A,Snow,Light Snow,0,2013-12-18 18:55:00
2:15 PM,19.9,12.2,72,29.92,4.0,Calm,Calm,-,N/A,Snow,Light Snow,0,2013-12-18 19:15:00
2:35 PM,20.3,12.4,71,29.92,10.0,Calm,Calm,-,N/A,,Clear,0,2013-12-18 19:35:00
2:55 PM,22.1,14.7,73,29.93,10.0,Calm,Calm,-,N/A,,Mostly Cloudy,0,2013-12-18 19:55:00
3:15 PM,22.1,15.3,75,29.93,10.0,Calm,Calm,-,N/A,,Overcast,0,2013-12-18 20:15:00
3:35 PM,21.7,14.9,75,29.93,2.0,Calm,Calm,-,N/A,Snow,Light Snow,0,2013-12-18 20:35:00
3:55 PM,21.2,14.9,77,29.94,2.5,Calm,Calm,-,N/A,Snow,Light Snow,0,2013-12-18 20:55:00
4:15 PM,20.8,14.9,78,29.94,2.5,Calm,Calm,-,N/A,Snow,Light Snow,0,2013-12-18 21:15:00
4:35 PM,20.8,15.4,80,29.93,7.0,SE,4.6,-,N/A,,Overcast,140,2013-12-18 21:35:00
4:55 PM,21.6,16.7,82,29.93,10.0,South,4.6,-,N/A,,Overcast,170,2013-12-18 21:55:00
5:15 PM,22.1,17.2,82,29.94,10.0,Calm,Calm,-,N/A,,Overcast,0,2013-12-18 22:15:00
5:35 PM,23.2,17.8,80,29.94,10.0,Calm,Calm,-,N/A,,Overcast,0,2013-12-18 22:35:00
5:55 PM,23.7,18.7,81,29.93,10.0,South,4.6,-,N/A,,Overcast,180,2013-12-18 22:55:00
6:15 PM,25.0,19.6,80,29.93,10.0,South,4.6,-,N/A,,Overcast,190,2013-12-18 23:15:00
6:35 PM,25.7,20.3,80,29.94,10.0,SSW,3.5,-,N/A,,Overcast,210,2013-12-18 23:35:00
6:55 PM,25.5,19.9,79,29.96,10.0,NNW,8.1,-,N/A,,Overcast,340,2013-12-18 23:55:00
7:15 PM,20.8,15.8,81,29.97,7.0,NW,4.6,-,N/A,,Overcast,320,2013-12-19 00:15:00
7:35 PM,21.4,17.1,83,29.97,5.0,Calm,Calm,-,N/A,Snow,Light Snow,0,2013-12-19 00:35:00
7:55 PM,21.7,17.6,84,29.97,5.0,Calm,Calm,-,N/A,Snow,Light Snow,0,2013-12-19 00:55:00
8:15 PM,21.9,17.6,83,29.97,7.0,Calm,Calm,-,N/A,,Overcast,0,2013-12-19 01:15:00
8:35 PM,21.2,17.2,85,29.98,7.0,Calm,Calm,-,N/A,,Overcast,0,2013-12-19 01:35:00
8:55 PM,21.0,17.2,85,29.99,7.0,Calm,Calm,-,N/A,,Overcast,0,2013-12-19 01:55:00
9:15 PM,21.2,17.6,86,29.98,7.0,Calm,Calm,-,N/A,,Overcast,0,2013-12-19 02:15:00
9:35 PM,21.0,17.4,86,29.98,7.0,SE,3.5,-,N/A,,Overcast,130,2013-12-19 02:35:00
9:55 PM,22.1,18.5,86,29.98,7.0,SE,3.5,-,N/A,,Overcast,140,2013-12-19 02:55:00
10:15 PM,22.1,18.5,86,29.98,7.0,Calm,Calm,-,N/A,,Overcast,0,2013-12-19 03:15:00
10:35 PM,22.1,18.5,86,29.98,7.0,Calm,Calm,-,N/A,,Overcast,0,2013-12-19 03:35:00
10:55 PM,23.4,20.1,87,29.98,5.0,Calm,Calm,-,N/A,,Overcast,0,2013-12-19 03:55:00
11:15 PM,23.4,20.1,87,29.98,7.0,Calm,Calm,-,N/A,,Overcast,0,2013-12-19 04:15:00
11:35 PM,23.4,19.8,86,29.98,7.0,NNW,3.5,-,N/A,,Overcast,330,2013-12-19 04:35:00
11:55 PM,22.5,19.0,87,29.99,5.0,NNW,3.5,-,N/A,,Overcast,340,2013-12-19 04:55:00